Regional Weather Roundup
Issued by NWS

Home | Current Version | Previous Version | Graphics & Text | Print | Product List | Glossary On
Versions: 1 2 3 4 5 6 7 8 9 10 11 12 13 14 15 16 17 18 19 20 21 22 23 24 25 26 27 28 29 30 31 32 33 34 35 36 37 38 39 40 41 42 43 44 45 46 47 48 49 50
000
ASUS43 KIND 221809
RWRIN

WEATHER ROUNDUP FOR INDIANA
NATIONAL WEATHER SERVICE INDIANAPOLIS IN
200 PM EDT MON MAY 22 2017

NOTE: "FAIR" INDICATES FEW OR NO CLOUDS BELOW 12,000 FEET WITH NO
SIGNIFICANT WEATHER AND/OR OBSTRUCTIONS TO VISIBILITY.

* - STATION DOES NOT REPORT WEATHER SUCH AS PRECIPITATION OR FOG.

+ - STATION NOT QUALITY CONTROLLED BY THE NATIONAL WEATHER SERVICE.
    USE DATA WITH CAUTION...ESPECIALLY DEWPOINT AND RELATIVE
    HUMIDITY OBSERVATIONS.

INZ001>003-010>013-019-020-221900-
NORTHWEST INDIANA

CITY           SKY/WX    TMP DP  RH WIND       PRES   REMARKS
GARY /AIRPORT/ MOSUNNY   70  41  35 SW14      29.99F
KNOX *+        SUNNY     68  36  30 SW14      30.02F
LA PORTE +     SUNNY     66  48  51 SW15G22   30.02F
6HR MIN TEMP:  50; 6HR MAX TEMP:  66;

MICHIGAN CITY+ SUNNY     68  45  42 SW14G22   30.01F
MONTICELLO +   SUNNY     66  46  48 SW10      30.04F
6HR MIN TEMP:  50; 6HR MAX TEMP:  67;

RENSSELAER +   SUNNY     68  41  37 SW14      30.04F
VALPARAISO     SUNNY     69  47  45 SW14G25   30.02F
6HR MIN TEMP:  51; 6HR MAX TEMP:  69;


$$

LMZ046-743>745-221900-
SOUTHERN LAKE MICHIGAN

STATION/POSITION TIME  TEMP    WIND        PRES    WAVE
                       AIR SEA DIR/SP/G            HT
                 (UTC) (F)     (DEG/KT/KT) (MB)    (FT)
BURNS HARBOR     1740   65     210/ 18/ 22 1016.3F
MICHIGAN CITY    1740   62     220/ 11/ 12   N/A
5NW MICH CITY    1800   58 54  240/  6/  8   N/A     1

$$

INZ004-005-014>016-021>024-221900-
NORTH CENTRAL INDIANA

CITY           SKY/WX    TMP DP  RH WIND       PRES   REMARKS
ELKHART        SUNNY     66  46  48 SW12      30.01F
GOSHEN         SUNNY     65  47  52 W14G20    30.03F
6HR MIN TEMP:  51; 6HR MAX TEMP:  65;

LOGANSPORT +   SUNNY     64  45  48 SW10      30.06F
PERU/GRISSOM   SUNNY     65  49  55 SW7       30.05F
6HR MIN TEMP:  52; 6HR MAX TEMP:  65;

ROCHESTER +    SUNNY     68  48  49 SW7       30.05F
SOUTH BEND     SUNNY     65  47  52 SW16G22   30.01F
6HR MIN TEMP:  50; 6HR MAX TEMP:  65;

WARSAW +       MOSUNNY   64  45  48 SW8G17    30.04F

$$

INZ006>009-017-018-025>027-221900-
NORTHEAST INDIANA

CITY           SKY/WX    TMP DP  RH WIND       PRES   REMARKS
ANGOLA *+      MOSUNNY   64  57  77 W14       30.02S
AUBURN +       SUNNY     64  45  48 W8G17     30.05S
FORT WAYNE     PTSUNNY   66  49  54 W16       30.05F
6HR MIN TEMP:  52; 6HR MAX TEMP:  66;

HUNTINGTON +   MOSUNNY   65  49  54 W9        30.05S
6HR MIN TEMP:  51; 6HR MAX TEMP:  65;

KENDALLVILLE + SUNNY     66  47  49 W9G17     30.04S

$$

INZ028-029-035-036-043>045-051>053-221900-
WEST CENTRAL INDIANA

CITY           SKY/WX    TMP DP  RH WIND       PRES   REMARKS
CRAWFORDSVL +  SUNNY     64  52  64 SW9       30.07F
6HR MIN TEMP:  50; 6HR MAX TEMP:  64;

GREENCASTLE +  SUNNY     64  43  45 S3        30.09F
LAFAYETTE      SUNNY     67  48  50 SW7       30.05F
6HR MIN TEMP:  50; 6HR MAX TEMP:  67;

TERRE HAUTE    SUNNY     69  44  40 SW8       30.09F
6HR MIN TEMP:  52; 6HR MAX TEMP:  69;


$$

INZ030>032-037>040-046>048-054>057-064-065-221900-
CENTRAL INDIANA

CITY           SKY/WX    TMP DP  RH WIND       PRES   REMARKS
CP ATTERBURY + MOSUNNY   66  43  42 CALM      30.11F
COLUMBUS       MOSUNNY   66  37  34 E5        30.12F
FRANKFORT +    SUNNY     69  50  51 W9        30.08F
6HR MIN TEMP:  53; 6HR MAX TEMP:  69;

GREENWOOD *+   CLOUDY    66  44  44 W3        30.10F
6HR MIN TEMP:  52; 6HR MAX TEMP:  67;

INDIANAPOLIS   PTSUNNY   66  46  48 SW8       30.08F
6HR MIN TEMP:  51; 6HR MAX TEMP:  67;

-EAGLE CREEK   SUNNY     66  44  45 MISG      30.08F
6HR MIN TEMP:  52; 6HR MAX TEMP:  67;

KOKOMO +       SUNNY     66  49  54 W9        30.07F
6HR MIN TEMP:  52; 6HR MAX TEMP:  67;

MARION +       SUNNY     64  46  52 W9        30.08F
MT COMFORT *+  SUNNY     66  46  48 SW8       30.09F
SHELBYVILLE    CLOUDY    67  43  41 CALM      30.09F
6HR MIN TEMP:  54; 6HR MAX TEMP:  68;

ZIONSVILLE +   SUNNY     64  48  55 SW6       30.08F
6HR MIN TEMP:  51; 6HR MAX TEMP:  65;


$$

INZ033-034-041-042-049-050-058-059-221900-
EAST CENTRAL INDIANA

CITY           SKY/WX    TMP DP  RH WIND       PRES   REMARKS
MUNCIE         SUNNY     66  45  46 SW6       30.08F
6HR MIN TEMP:  53; 6HR MAX TEMP:  66;

RICHMOND +     SUNNY     63  41  45 CALM      30.11S

$$

INZ060-061-067>069-081>083-085>088-221900-
SOUTHWEST INDIANA

CITY           SKY/WX    TMP DP  RH WIND       PRES   REMARKS
EVANSVILLE     CLOUDY    72  43  35 SE8       30.11F
6HR MIN TEMP:  58; 6HR MAX TEMP:  73;

HUNTINGBURG *+ MOSUNNY   69  48  47 VRB5      30.12F
6HR MIN TEMP:  54; 6HR MAX TEMP:  69;

WASHINGTON +   SUNNY     68  44  41 E5        30.11F
6HR MIN TEMP:  53; 6HR MAX TEMP:  68;


$$

INZ062-063-066-070>080-084-089>092-221900-
SOUTH CENTRAL AND SOUTHEAST INDIANA

CITY           SKY/WX    TMP DP  RH WIND       PRES   REMARKS
BEDFORD +      MOSUNNY   68  41  37 CALM      30.11F
BLOOMINGTON    CLOUDY    68  44  42 E6        30.10F
6HR MIN TEMP:  50; 6HR MAX TEMP:  68;

MADISON *+     CLOUDY    66  41  39 E5        30.14F
NORTH VERNON + CLOUDY    64  41  42 CALM      30.13F
SEYMOUR +      PTSUNNY   68  43  40 E5        30.12F

$$





USA.gov is the U.S. government's official web portal to all federal, state and local government web resources and services.